CAPE
0 0 0 0 0 0 0 0 0 0 0 0 0 0 4 6 11 16 21 20 19 25 19 16 27 37 31
0 0 0 0 0 0 0 0 0 0 0 0 1 4 8 14 23 32 33 33 30 22 22 23 23 9 11
0 0 0 0 0 0 1 0 0 0 0 0 4 8 5 8 12 12 23 22 20 19 24 14 16 17 11
0 0 0 0 0 0 0 0 0 0 0 0 1 0 0 0 2 7 9 20 17 13 11 18 17 17 18
0 0 0 0 0 0 0 0 1 1 0 0 3 0 0 0 0 3 8 10 13 18 10 15 16 24 14
1 0 0 0 0 0 0 0 1 0 9 0 6 0 0 0 1 7 6 10 10 1 3 8 16 24 28
0 0 0 0 0 0 0 4 0 0 8 0 0 0 1 5 1 3 7 12 12 15 5 12 17 24 19
0 0 0 7 6 4 6 3 0 0 4 0 0 0 0 0 0 9 13 11 12 14 6 3 6 12 19
0 4 6 5 6 4 2 2 1 0 0 5 0 0 0 0 0 0 0 1 8 7 3 12 13 13 8
0 0 0 0 2 2 0 0 0 0 0 5 3 3 2 0 0 0 0 0 4 5 1 1 0 0 0
2 0 1 3 0 6 5 5 1 0 0 4 0 0 3 2 0 0 0 0 0 0 1 4 23 15 6
1 0 0 0 0 1 4 5 8 5 4 5 6 2 2 2 1 0 0 0 0 0 1 2 4 9 9
0 0 0 2 0 0 6 1 1 0 0 5 4 0 0 0 0 0 2 0 0 6 1 1 0 0 0
0 0 1 0 0 2 0 1 0 0 0 0 0 1 1 2 2 0 0 0 0 2 1 0 0 0 2
1 0 1 1 1 3 1 0 1 1 1 0 0 1 1 0 0 0 0 2 2 1 6 0 0 0 3
1 0 0 0 0 0 1 1 0 1 0 0 2 1 0 0 0 1 2 2 0 0 0 2 1 0 0
0 0 1 0 1 0 0 1 0 0 0 2 2 2 0 0 0 0 0 0 0 0 0 4 2 0 0
CIN
0 0 0 0 0 0 0 0 0 0 0 0 0 -1 0 0 -1 -1 -1 -2 -1 -1 -1 -1 -1 0 -1
0 0 0 0 0 0 0 0 0 0 0 0 0 -1 -1 -1 -1 -1 -1 -1 0 0 -1 -1 -1 -2 -2
0 0 0 0 0 0 -1 0 0 0 0 -1 -1 -1 -1 -1 -1 -1 -1 -1 0 -1 -1 -1 -1 -1 -1
0 0 0 0 0 0 0 0 0 0 0 0 -1 0 0 0 -1 -1 0 -1 0 -1 -1 0 0 -1 -1
0 0 0 0 0 0 0 0 0 0 0 0 -1 0 0 0 0 -1 0 -1 -1 -1 -2 -1 -1 -1 -1
0 0 0 0 0 -1 0 0 0 0 -1 0 0 0 0 0 -1 -1 0 0 0 -3 -2 -1 -1 0 0
0 0 0 0 -2 0 0 0 0 0 0 0 0 0 -1 0 -1 -1 0 -1 0 -1 -2 -1 -1 -1 -1
0 0 0 -1 -1 0 -1 -4 -1 0 0 -1 0 0 0 0 0 -1 0 -1 -1 0 -1 -2 -1 0 0
0 -1 -1 -1 -1 -1 -1 0 0 0 0 -1 0 0 0 0 0 0 0 0 -1 0 -2 -1 0 0 -2
0 0 -1 0 -1 -1 -2 0 0 0 0 0 0 -1 0 -1 0 0 0 0 -1 -1 -1 -1 -2 -1 -5
-2 -2 -2 0 -3 -1 -1 -1 -3 0 0 -1 0 0 0 0 -1 0 0 0 0 0 -5 -3 0 -1 -2
-2 -1 0 -2 0 -1 0 0 0 0 0 -1 -2 -1 0 0 0 0 0 0 -1 -1 -1 -2 0 0 0
-2 0 -1 0 0 0 -1 -2 -2 0 0 0 0 0 -5 0 0 0 0 0 0 -4 -8 -1 -2 -1 -5
0 0 0 -1 -2 -1 -1 -2 0 0 0 -1 0 -6 -2 -5 -1 0 -1 0 0 -5 -3 -2 0 -1 0
-2 -2 -2 -2 -2 -1 -2 0 -2 -1 -3 0 0 -4 -2 -1 0 0 0 -2 -4 -2 -1 -3 -1 0 -2
-1 -2 -4 -2 -2 0 -1 -2 -1 -2 -2 0 -2 -1 0 0 0 -2 -1 -1 -1 0 -3 -4 -4 -1 -1
-2 0 -2 -3 -1 -1 -2 -2 -2 -3 0 -1 -2 -1 0 0 0 0 0 0 0 -5 0 -1 -1 0 0
Wind_Speed
38 40 41 41 42 44 41 42 42 44 46 48 49 49 49 50 50 50 50 51 51 52 53 53 52 51 50
40 40 42 44 41 41 41 41 43 45 47 48 47 48 48 49 49 49 49 49 50 50 50 49 51 51 51
42 41 41 41 43 41 42 43 44 45 45 47 46 46 48 48 48 49 49 48 46 44 45 48 49 50 51
41 43 42 43 42 46 47 45 45 43 45 45 45 45 45 44 43 41 41 39 39 41 43 43 44 45 46
43 45 46 47 48 47 49 48 45 43 47 42 42 41 38 38 38 36 38 38 38 39 41 42 42 43 43
43 46 47 47 47 47 48 49 51 43 42 42 39 38 36 35 36 37 38 39 39 38 38 40 40 40 41
43 45 47 45 46 47 44 43 44 42 40 39 37 35 34 31 34 34 33 33 35 37 37 40 40 41 42
39 40 40 39 40 40 39 38 37 36 34 38 35 32 31 29 26 26 27 32 37 34 37 38 39 40 41
38 39 38 38 35 34 36 37 38 37 33 32 31 30 27 23 22 25 26 25 31 34 37 38 38 38 37
39 36 35 33 31 31 32 35 34 36 29 27 25 25 26 13 20 20 17 15 21 36 33 34 25 28 27
36 35 33 32 32 29 28 26 24 18 20 23 22 20 18 18 17 14 9 11 9 8 10 9 10 24 25
35 35 35 33 31 29 27 24 20 15 18 18 18 18 13 15 13 13 10 8 6 5 6 9 11 9 12
35 34 32 31 32 31 30 31 25 21 20 18 18 14 12 10 11 11 11 11 5 8 10 9 9 9 8
33 32 31 32 32 32 33 33 27 26 23 20 14 11 10 10 10 11 10 11 9 10 10 11 13 15 12
31 31 31 31 31 33 33 30 27 26 24 19 15 11 9 9 11 10 11 10 11 12 14 14 11 12 16
30 30 30 31 35 35 32 28 26 25 19 14 18 19 17 16 11 11 15 16 14 12 11 11 13 15 13
29 28 29 35 37 36 31 28 27 22 16 18 22 20 22 21 21 19 17 15 15 15 16 14 11 10 11
Wind_Direction
332 333 332 332 332 331 331 330 329 327 326 324 322 320 317 313 311 307 305 302 299 296 294 291 290 289 287
333 334 334 332 332 331 331 331 330 329 327 325 323 321 319 316 313 310 307 306 303 299 296 294 291 289 287
333 335 335 335 333 332 332 332 331 329 328 327 325 323 321 318 315 313 310 309 307 304 302 298 294 291 287
335 334 335 335 334 332 331 332 330 331 329 327 325 324 323 324 323 322 320 318 317 312 308 305 300 295 291
334 334 334 334 333 333 331 331 331 331 328 328 328 327 329 329 328 328 325 322 319 316 313 309 305 301 297
335 334 334 334 334 334 333 332 330 334 332 330 331 330 330 330 328 327 326 323 322 319 317 314 310 306 302
334 334 333 334 334 334 334 334 333 335 335 334 337 335 335 335 331 329 330 331 329 325 321 317 313 307 303
337 335 335 334 334 334 335 335 337 340 343 338 342 343 345 343 342 340 339 334 330 330 324 321 317 311 305
338 336 336 336 337 339 340 340 340 341 345 344 346 346 349 350 353 353 346 347 340 335 329 324 321 318 314
340 341 342 342 343 344 343 341 341 341 350 351 353 357 355 2 1 360 0 355 354 321 331 320 344 341 337
343 343 344 345 344 345 345 346 346 343 352 354 353 354 358 355 4 359 353 353 351 348 279 277 283 314 337
345 345 345 346 346 346 346 348 349 340 347 353 355 356 351 351 343 360 346 343 345 324 353 304 288 329 345
346 347 347 347 345 345 345 343 350 353 355 356 356 355 358 347 340 342 339 358 337 6 351 351 337 349 349
348 348 349 348 347 344 341 342 351 354 358 359 359 355 347 339 333 331 348 360 343 349 348 354 2 6 7
351 350 349 349 348 345 339 347 351 353 354 358 358 349 337 324 331 333 340 337 344 346 350 352 353 3 5
351 350 349 347 340 339 344 351 352 353 355 353 356 355 354 356 351 350 350 346 343 339 343 341 347 357 358
351 349 349 340 332 335 347 353 354 356 355 357 357 358 355 351 354 0 349 347 349 350 354 351 332 332 342